This demonstration page uses our WeatherBlox Daily Observations layout. Learn more.

Left ArrowRight Arrow

Hourly Observations for April 1, 2021

Temp ( °F °C ) Dew Point ( °F °C ) Humidity (%) Winds ( mph kmh ) Pressure ( in mb ) Visibility ( mi km ) Precip ( " mm )
12:53 am 00:53 Clear 50 10 39 3.9 66 66 Calm 30.03 1017 10 16 0.00 0.00
1:53 am 01:53 Clear 47 8.3 39 3.9 74 74 NNE 6 9 30.03 1017 10 16 0.00 0.00
2:53 am 02:53 Clear 47 8.3 38 3.3 71 71 Calm 30.02 1017 10 16 0.00 0.00
3:53 am 03:53 Clear 45 7.2 38 3.3 77 77 Calm 30.01 1016 10 16 0.00 0.00
4:53 am 04:53 Clear 44 6.7 37 2.8 76 76 NW 3 6 30.00 1016 10 16 0.00 0.00
5:53 am 05:53 Clear 45 7.2 37 2.8 74 74 Calm 30.00 1016 10 16 0.00 0.00
6:53 am 06:53 Sunny 43 6.1 36 2.2 76 76 NNE 3 6 30.00 1016 10 16 0.00 0.00
7:53 am 07:53 Sunny 45 7.2 38 3.3 77 77 Calm 30.01 1016 10 16 0.00 0.00
8:53 am 08:53 Sunny 55 12.8 41 5 59 59 NE 3 6 30.01 1016 10 16 0.00 0.00
9:53 am 09:53 Sunny 63 17.2 39 3.9 41 41 VRB 3 6 30.00 1016 10 16 0.00 0.00
10:53 am 10:53 Sunny 68 20 39 3.9 35 35 VRB 3 6 29.98 1015 10 16 0.00 0.00
11:53 am 11:53 Sunny 73 22.8 37 2.8 27 27 VRB 3 6 29.96 1015 10 16 0.00 0.00
12:53 pm 12:53 Sunny 73 22.8 37 2.8 27 27 VRB 5 7 29.94 1014 10 16 0.00 0.00
1:53 pm 13:53 Sunny 75 23.9 37 2.8 25 25 S 6 9 29.92 1013 10 16 0.00 0.00
2:53 pm 14:53 Sunny 78 25.6 38 3.3 24 24 S 8 13 29.89 1012 10 16 0.00 0.00
3:53 pm 15:53 Sunny 79 26.1 34 1.1 20 20 S 15 24 29.86 1011 10 16 0.00 0.00
4:53 pm 16:53 Sunny 79 26.1 35 1.7 20 20 S 14 22 29.84 1010 10 16 0.00 0.00
5:53 pm 17:53 Sunny 79 26.1 35 1.7 20 20 S 12 19 29.83 1010 10 16 0.00 0.00
6:53 pm 18:53 Sunny 78 25.6 33 0.6 19 19 SSW 8 13 29.81 1010 10 16 0.00 0.00
7:53 pm 19:53 Clear 69 20.6 36 2.2 30 30 SW 3 6 29.81 1010 10 16 0.00 0.00
8:53 pm 20:53 Clear 65 18.3 40 4.4 40 40 NNE 3 6 29.83 1010 10 16 0.00 0.00
9:53 pm 21:53 Clear 62 16.7 39 3.9 43 43 NNE 5 7 29.85 1011 10 16 0.00 0.00
10:53 pm 22:53 Clear 57 13.9 41 5 55 55 NW 5 7 29.85 1011 10 16 0.00 0.00
11:53 pm 23:53 Clear 58 14.4 41 5 53 53 N 5 7 29.86 1011 10 16 0.00 0.00

Powered by AerisWeather